Location: Newark
(27.9675°N, 86.8869°E)
Time: 16:32:00
(UTC+00:00)

A-11 Canister half - All Passes

Search period start: 22 October 2019 00:00
Search period end: 01 November 2019 00:00
Orbit: 1514 x 1686 km, 47.2° (Epoch: 21 October)

Date Brightness Start Highest point End Pass type
(mag) Time Alt. Az. Time Alt. Az. Time Alt. Az.
22 Oct - 01:22:15 10° NW 01:31:22 48° NNE 01:40:12 10° ESE daylight
22 Oct - 03:27:20 10° WNW 03:36:20 54° SW 03:45:13 10° SSE daylight
22 Oct - 16:33:59 10° S 16:42:17 29° SE 16:50:26 10° ENE night (unlit)
22 Oct - 18:36:34 10° SW 18:46:43 78° NW 18:56:38 10° NE visible
22 Oct - 20:44:27 10° W 20:53:01 31° NNW 21:01:21 10° NE visible
22 Oct - 22:53:34 10° NW 23:01:04 24° N 23:08:21 10° ENE visible
23 Oct - 00:59:20 10° NW 01:08:23 45° NNE 01:17:09 10° ESE daylight
23 Oct - 03:04:20 10° WNW 03:13:28 58° SW 03:22:26 10° SSE daylight
23 Oct - 16:11:24 10° S 16:19:23 27° SE 16:27:16 10° ENE night (unlit)
23 Oct - 18:13:35 10° SW 18:23:45 83° NW 18:33:42 10° NE visible
23 Oct - 20:21:14 10° W 20:29:56 32° NNW 20:38:26 10° NE visible
23 Oct - 22:30:28 10° NW 22:37:57 24° N 22:45:15 10° NE visible
24 Oct - 00:36:24 10° NW 00:45:23 43° NNE 00:54:06 10° E daylight
24 Oct - 02:41:21 10° NW 02:50:36 63° SW 02:59:39 10° SSE daylight
24 Oct - 04:52:00 10° WSW 04:54:16 11° WSW 04:56:33 10° SW daylight
24 Oct - 15:48:52 10° S 15:56:30 25° SE 16:04:03 10° ENE night (unlit)
24 Oct - 17:50:36 10° SW 18:00:48 87° NW 18:10:47 10° NE night (unlit)
24 Oct - 19:58:03 10° W 20:06:52 34° NNW 20:15:30 10° NE visible
24 Oct - 22:07:20 10° NW 22:14:50 24° N 22:22:08 10° NE visible
25 Oct - 00:13:27 10° NW 00:22:23 41° NNE 00:31:02 10° E daylight
25 Oct - 02:18:22 10° NW 02:27:43 68° SW 02:36:50 10° SE daylight
25 Oct - 04:27:51 10° W 04:31:26 13° WSW 04:35:01 10° SSW daylight
25 Oct - 15:26:21 10° S 15:33:37 22° SE 15:40:48 10° ENE night (unlit)
25 Oct - 17:27:38 10° SW 17:37:51 88° SE 17:47:51 10° NE night (unlit)
25 Oct - 19:34:50 10° W 19:43:49 35° NNW 19:52:35 10° NE visible
25 Oct - 21:44:12 10° NW 21:51:43 24° N 21:59:03 10° NE visible
25 Oct - 23:50:31 10° NW 23:59:23 39° NNE 00:07:56 10° E visible
26 Oct - 01:55:24 10° NW 02:04:50 72° SW 02:14:01 10° SE daylight
26 Oct - 04:04:07 10° W 04:08:36 14° WSW 04:13:05 10° SSW daylight
26 Oct - 15:03:55 10° SSE 15:10:45 20° SE 15:17:30 10° E night (unlit)
26 Oct - 17:04:42 10° SW 17:14:54 83° SE 17:24:55 10° NE night (unlit)
26 Oct - 19:11:39 10° W 19:20:45 37° NNW 19:29:40 10° NE visible
26 Oct - 21:21:04 10° NW 21:28:37 24° N 21:35:57 10° NE visible
26 Oct - 23:27:33 10° NW 23:36:21 37° NNE 23:44:51 10° E visible
27 Oct - 01:32:26 10° NW 01:41:57 77° SW 01:51:10 10° SE daylight
27 Oct - 03:40:34 10° W 03:45:46 16° WSW 03:50:57 10° SSW daylight
27 Oct - 14:41:33 10° SSE 14:47:51 18° SE 14:54:08 10° E visible
27 Oct - 16:41:47 10° SW 16:51:57 78° SE 17:01:58 10° NE night (unlit)
27 Oct - 18:48:28 10° W 18:57:42 39° NNW 19:06:45 10° NE visible
27 Oct - 20:57:54 10° NW 21:05:30 24° N 21:12:53 10° NE visible
27 Oct - 23:04:36 10° NW 23:13:20 36° NNE 23:21:46 10° E visible
28 Oct - 01:09:29 10° NW 01:19:03 83° SW 01:28:19 10° SE daylight
28 Oct - 03:17:09 10° W 03:22:56 18° SW 03:28:41 10° SSW daylight
28 Oct - 14:19:16 10° SSE 14:24:59 17° ESE 14:30:40 10° E visible
28 Oct - 16:18:53 10° SW 16:29:01 74° SE 16:39:01 10° NE night (unlit)
28 Oct - 18:25:18 10° W 18:34:39 40° NNW 18:43:49 10° NE visible
28 Oct - 20:34:43 10° NW 20:42:22 24° N 20:49:49 10° NE visible
28 Oct - 22:41:38 10° NW 22:50:17 34° NNE 22:58:39 10° E visible
29 Oct - 00:46:31 10° NW 00:56:09 88° SW 01:05:27 10° SE daylight
29 Oct - 02:53:47 10° W 03:00:06 20° SW 03:06:21 10° SSW daylight
29 Oct - 13:57:06 10° SSE 14:02:06 15° ESE 14:07:05 10° E visible
29 Oct - 15:56:00 10° SW 16:06:05 69° SE 16:16:03 10° NE visible
29 Oct - 18:02:09 10° W 18:11:36 42° NNW 18:20:55 10° NE night (unlit)
29 Oct - 20:11:33 10° NW 20:19:15 24° N 20:26:45 10° NE visible
29 Oct - 22:18:39 10° NW 22:27:15 33° NNE 22:35:32 10° E visible
30 Oct - 00:23:34 10° NW 00:33:14 87° NE 00:42:34 10° SE daylight
30 Oct - 02:30:30 10° WNW 02:37:16 22° SW 02:43:56 10° S daylight
30 Oct - 13:35:07 10° SSE 13:39:14 13° ESE 13:43:19 10° E visible
30 Oct - 15:33:08 10° SSW 15:43:09 65° SE 15:53:04 10° NE visible
30 Oct - 17:39:00 10° W 17:48:35 45° NNW 17:57:59 10° NE night (unlit)
30 Oct - 19:48:22 10° WNW 19:56:07 24° N 20:03:43 10° NE visible
30 Oct - 21:55:41 10° NW 22:04:11 32° NNE 22:12:25 10° E visible
31 Oct - 00:00:37 10° NW 00:10:19 83° NE 00:19:39 10° SE visible
31 Oct - 02:07:16 10° WNW 02:14:25 25° SW 02:21:28 10° S daylight
31 Oct - 13:13:30 10° SE 13:16:22 11° ESE 13:19:12 10° ESE visible
31 Oct - 15:10:18 10° SSW 15:20:13 60° SE 15:30:05 10° NE visible
31 Oct - 17:15:52 10° WSW 17:25:32 47° NNW 17:35:04 10° NE night (unlit)
31 Oct - 19:25:09 10° WNW 19:33:00 25° N 19:40:41 10° NE visible
31 Oct - 21:32:42 10° NW 21:41:07 31° NNE 21:49:17 10° ENE visible
31 Oct - 23:37:40 10° NW 23:47:24 78° NE 23:56:44 10° SE visible
